Home   Weather   Visalia   Past weeks

Flag for USA Past Weather in Visalia, California, USA — Yesterday and Last 2 Weeks

Now
40 °F

Clear.


Feels Like: 37 °F
Forecast: 32 / 53 °F
Wind: 5 mph from Northwest

Location: Visalia Municipal

Current Time: Feb 24, 2017 at 12:11:27 am

Latest Report: Feb 23, 2017 at 10:56 pm


Visibility: 10 mi

Pressure: 30.24 "Hg

Humidity: 80%

Dew Point: 34 °F

Location of VisaliaLocation

Past Weather in Visalia — Graph

°F

Visalia Temperature Yesterday

Maximum temperature yesterday: 54 °F (at 2:56 pm)
Minimum temperature yesterday: 36 °F (at 6:56 am)
Average temperature yesterday: 45 °F

High & Low Weather Summary for the Past Weeks

 TemperatureHumidityPressure
High72 °F (Feb 15, 3:56 pm)100% (Feb 10, 1:32 am)30.30 "Hg (Feb 10, 1:32 am)
Low36 °F (Feb 23, 6:56 am)43% (Feb 22, 1:56 pm)29.31 "Hg (Feb 17, 4:56 pm)
Average54 °F85%30.06 "Hg
* Reported Feb 8 10:56 pm — Feb 23 10:56 pm, Visalia, Weather by CustomWeather, © 2017

Note: Actual official high and low records may vary slightly from our data, if they occured in-between our weather recording intervals... More about our weather records

Advertising

Visalia Weather History for the Previous 24 Hours

Scroll right to see more
 ConditionsComfort  
Time TempWeatherWind HumidityBarometerVisibility
10:56 pm
Thu, Feb 23
40 °FClear.5 mph80%30.24 "Hg10 mi
9:56 pm41 °FClear.3 mph80%30.23 "Hg10 mi
8:56 pm43 °FClear.3 mph79%30.21 "Hg10 mi
7:56 pm47 °FClear.3 mph66%30.19 "Hg10 mi
6:56 pm48 °FOvercast.6 mph61%30.19 "Hg10 mi
5:56 pm50 °FOvercast.8 mph52%30.18 "Hg10 mi
4:56 pm52 °FPassing clouds.12 mph47%30.17 "Hg10 mi
3:56 pm54 °FPartly sunny.10 mph47%30.18 "Hg10 mi
2:56 pm54 °FScattered clouds.12 mph49%30.19 "Hg10 mi
1:56 pm53 °FOvercast.9 mph51%30.19 "Hg10 mi
11:56 am51 °FScattered clouds.5 mph54%30.22 "Hg10 mi
10:56 am49 °FPassing clouds.9 mph61%30.25 "Hg10 mi
10:37 am46 °FPartly sunny.7 mph66%30.22 "Hg10 mi
8:56 am44 °FSunny.6 mph76%30.25 "Hg10 mi
7:56 am40 °FSunny.8 mph86%30.24 "Hg10 mi
6:56 am36 °FSunny.6 mph89%30.22 "Hg10 mi
5:56 am37 °FClear.6 mph89%30.21 "Hg10 mi
4:56 am37 °FClear.6 mph89%30.20 "Hg10 mi
3:56 am38 °FClear.5 mph90%30.19 "Hg10 mi
2:56 am38 °FClear.5 mph90%30.20 "Hg10 mi
12:56 am41 °FClear.9 mph82%30.22 "Hg10 mi
Weather by CustomWeather, © 2017

See weather overviewHow to use our weather pages